GFSFLT2_prec_cthk_024.txt.gz
RH
20 20 18 11 7 6 8 9 11 12 15 20 22 24 26 29 30 31 30 30 30 31 30 30 30 31 33 34 35 36 37 37
23 20 15 11 10 11 13 15 17 21 24 29 30 31 32 32 31 32 32 32 31 30 30 30 30 31 32 32 33 36 38 40
24 18 17 20 25 25 26 28 30 29 32 35 36 37 38 36 35 35 36 35 34 33 33 33 33 32 32 32 32 33 36 37
25 23 19 25 30 33 35 35 35 37 38 38 36 38 40 41 39 37 36 36 37 36 35 34 34 33 32 31 31 32 32 32
35 34 25 26 32 38 39 41 39 40 39 41 39 40 41 41 40 39 38 38 39 38 38 36 35 35 35 34 32 30 30 31
44 37 29 29 35 42 45 43 43 44 42 42 39 40 42 43 43 45 44 43 42 42 41 41 39 36 36 37 36 33 33 30
48 48 54 48 51 50 51 50 48 49 49 48 43 42 45 46 49 49 49 48 46 45 44 42 39 36 37 38 36 36 35 35
53 71 56 59 58 62 59 57 59 56 54 52 48 49 51 49 51 53 52 49 47 46 46 44 39 35 34 35 36 36 37 38
47 55 69 58 67 62 63 63 60 57 55 54 55 55 55 56 56 57 56 53 50 51 52 50 45 39 36 35 36 37 35 35
58 55 57 59 63 61 61 63 62 60 63 62 63 64 61 58 56 58 61 58 56 54 54 48 43 38 34 33 33 33 33 30
69 73 70 71 63 61 59 61 66 68 70 71 72 70 68 65 63 65 66 62 59 54 48 42 38 35 32 30 28 26 26 26
74 74 76 71 61 62 66 72 70 68 70 70 69 66 66 69 68 71 66 62 53 48 43 40 36 33 30 27 26 24 23 24
76 79 70 67 67 65 71 71 71 73 72 68 67 68 71 72 74 71 61 55 50 47 45 40 39 37 34 33 32 31 33 32
66 66 66 66 63 66 69 71 73 72 69 69 70 73 74 70 63 60 57 54 53 49 44 38 37 39 41 38 37 32 34 39
58 57 58 59 62 63 66 68 65 63 65 67 68 65 62 61 59 57 53 46 39 36 36 37 41 42 42 42 42 40 36 32
52 56 57 57 59 60 60 57 57 58 59 60 60 59 56 53 47 39 36 33 33 34 38 35 38 35 36 37 41 43 45 35
49 50 50 50 49 51 54 56 57 55 56 56 57 55 50 44 38 34 33 30 28 29 29 28 34 39 41 41 41 42 44 47
49 50 54 56 56 56 54 54 56 58 59 60 54 52 45 36 32 32 29 24 27 28 30 33 34 35 36 40 42 44 46 50
57 59 60 61 58 56 57 59 62 62 61 59 53 38 31 31 32 30 27 27 28 31 31 33 36 38 42 46 53 57 63 62
64 62 61 58 56 56 56 56 58 57 51 42 31 31 31 33 34 25 22 22 25 29 32 36 39 45 50 57 64 69 75 83

GFSFLT2_prec_cthk_027.txt.gz
RH
19 19 16 12 7 6 8 10 12 16 20 23 25 29 31 31 32 32 30 29 28 29 29 28 28 29 29 30 31 34 37 38
22 18 13 9 8 11 14 17 20 23 27 31 33 36 35 34 33 32 32 32 32 32 33 32 31 31 30 29 30 33 34 37
21 15 15 15 19 21 22 25 27 30 32 34 35 36 36 38 37 38 38 39 38 38 37 36 36 34 33 33 31 30 31 32
23 17 17 22 27 29 32 31 32 34 34 34 34 37 38 38 37 39 42 43 43 43 41 41 42 41 38 38 36 36 32 30
32 27 24 27 30 33 35 37 39 42 41 40 39 39 39 38 39 40 41 43 44 46 44 43 44 43 40 39 41 42 40 37
37 37 35 37 39 42 44 50 54 54 48 46 44 43 43 42 43 43 44 46 48 47 45 44 44 43 41 38 39 39 39 39
43 48 51 50 51 53 56 58 53 54 52 52 47 42 45 48 48 49 48 48 48 48 48 48 47 47 47 44 37 36 36 38
48 49 48 51 54 56 52 50 50 52 53 54 53 52 55 57 58 57 55 52 51 51 51 49 47 45 46 45 41 37 35 37
53 51 51 60 56 57 55 54 53 55 56 59 59 59 62 62 61 60 57 55 53 55 56 52 48 44 39 36 34 33 33 32
65 70 79 78 69 66 65 64 64 62 64 65 64 66 67 65 61 57 58 58 56 57 57 50 44 37 33 32 31 29 28 26
78 83 83 87 83 74 66 64 62 65 70 69 71 73 71 67 65 66 65 62 59 54 51 45 38 35 33 32 31 31 31 30
85 82 84 84 79 72 73 66 69 73 73 74 76 73 71 72 72 69 64 60 57 51 46 42 39 35 29 27 27 28 28 31
82 85 82 80 77 76 69 70 72 72 72 76 75 73 73 71 67 62 60 55 50 48 43 37 31 28 27 26 24 28 28 28
74 75 76 73 68 67 69 69 70 74 75 73 73 72 67 63 61 58 54 49 42 36 32 30 29 29 29 25 24 21 22 22
62 58 56 56 59 64 67 69 71 71 68 66 63 61 59 56 54 49 43 38 34 30 29 29 28 25 26 30 30 28 26 21
55 55 56 58 63 63 63 63 64 65 66 64 63 64 63 56 49 41 35 31 28 26 25 25 26 27 29 30 33 35 39 34
55 57 57 55 58 61 62 62 63 62 61 60 58 55 50 43 37 30 27 24 22 21 21 23 24 27 29 30 33 34 38 43
60 62 61 62 62 61 60 55 53 55 56 56 51 47 41 33 27 27 28 26 24 22 23 23 23 25 27 30 34 42 44 48
68 67 66 63 57 55 54 54 55 55 53 50 46 37 32 34 37 37 38 32 28 27 30 33 34 34 33 36 38 45 56 57
67 68 64 59 57 56 54 54 51 50 47 41 34 30 30 30 36 44 48 46 43 39 44 44 44 44 40 44 42 47 58 69

GFSFLT2_prec_cthk_030.txt.gz
RH
18 19 16 14 8 6 10 12 17 20 24 27 29 30 30 30 31 31 32 34 34 34 33 32 31 31 30 29 29 30 31 33
20 17 13 9 7 11 15 18 21 28 31 32 32 30 30 31 32 35 36 38 39 42 41 38 37 35 33 33 33 31 30 30
19 14 11 10 14 18 22 25 30 33 33 33 34 34 34 34 35 37 38 40 38 40 43 43 42 40 39 38 38 36 36 34
16 16 16 20 22 24 29 31 35 37 41 44 46 44 41 41 40 40 40 40 40 41 43 43 43 44 45 44 42 40 38 38
23 19 23 26 31 33 36 38 44 48 51 51 48 46 45 42 43 43 44 45 44 45 46 47 48 46 45 45 44 43 39 36
36 35 33 40 41 44 48 51 52 52 54 50 48 45 48 47 46 46 48 49 49 48 47 48 49 50 48 45 43 43 41 37
45 45 46 50 52 54 56 60 57 54 52 53 50 48 51 51 54 54 56 55 55 52 50 50 51 54 54 47 42 38 37 36
51 50 51 53 54 59 64 64 62 59 58 57 55 54 54 55 57 60 62 59 57 55 54 55 52 51 52 48 41 36 34 32
60 61 60 63 67 68 73 74 71 66 62 61 60 61 61 61 63 65 65 62 59 58 58 56 53 51 46 41 36 33 31 30
67 72 74 80 86 87 85 76 78 77 69 65 66 68 66 66 69 68 66 63 61 59 53 49 48 44 39 36 34 31 28 26
69 80 88 94 90 89 89 84 78 69 68 70 73 72 70 71 71 67 62 59 55 51 49 47 43 38 34 30 27 26 24 24
74 85 93 89 92 91 78 72 69 70 72 73 72 71 70 71 66 62 57 54 52 47 43 39 32 27 25 23 21 20 20 22
86 90 91 91 84 79 73 69 68 68 69 69 68 66 64 61 56 53 51 47 41 37 33 30 27 24 21 19 18 19 19 15
89 84 73 70 65 61 61 62 61 63 63 62 62 63 60 57 55 50 45 40 37 34 30 26 22 19 19 18 18 17 17 17
67 65 62 60 57 55 56 57 58 60 60 60 59 57 54 51 47 43 41 37 29 23 20 18 17 16 17 20 25 25 27 25
59 59 60 59 58 60 61 60 63 63 61 60 58 54 52 48 44 38 31 27 26 24 22 21 22 24 23 25 28 31 33 31
67 67 69 67 69 69 64 63 63 61 59 59 55 50 46 38 29 26 25 27 29 28 27 27 26 27 28 29 28 30 33 38
81 77 73 73 72 68 64 63 59 57 55 50 48 44 36 26 25 25 26 28 32 34 33 33 34 33 36 39 39 38 38 44
74 76 76 75 71 63 62 60 56 52 49 46 39 32 29 29 29 31 35 40 38 35 44 44 45 47 49 50 54 48 44 46
74 75 77 74 66 62 60 53 49 47 41 36 35 33 32 33 36 41 45 44 45 49 53 61 59 59 59 61 56 54 53 51

GFSFLT2_prec_cthk_033.txt.gz
RH
26 20 20 17 12 8 11 15 20 25 28 30 29 30 31 31 30 31 32 32 33 32 33 33 34 34 33 32 31 30 29 27
20 20 16 12 8 12 17 21 28 31 33 33 33 31 32 35 36 37 39 37 35 35 36 36 35 36 37 38 37 37 36 34
20 17 12 10 14 19 23 28 33 34 36 37 40 43 45 43 43 43 43 43 41 41 40 39 40 41 40 40 40 40 41 40
18 14 14 16 21 26 30 34 37 41 45 45 46 48 45 44 46 46 44 42 43 44 45 43 42 42 44 44 44 41 38 38
18 18 22 27 30 35 36 41 51 53 49 48 52 50 46 46 46 45 47 48 46 46 48 47 45 45 45 45 46 45 38 35
24 28 33 36 40 44 49 51 56 56 57 56 52 50 49 48 49 48 50 50 51 53 52 51 50 49 48 46 44 43 40 36
42 39 48 50 50 55 60 61 61 63 66 63 58 53 53 53 54 56 57 58 59 58 56 55 54 53 51 46 44 42 38 35
55 52 50 54 61 63 66 69 72 72 72 76 75 67 62 59 60 61 62 63 63 61 60 56 54 53 50 46 42 38 33 30
59 57 59 62 72 74 77 85 80 82 76 73 70 68 66 66 66 66 66 64 62 60 58 58 54 48 41 37 34 31 28 25
68 73 81 82 84 85 91 86 83 83 73 66 70 71 72 72 70 67 63 63 59 56 51 47 42 39 34 31 28 25 22 21
66 75 82 88 93 90 91 83 84 76 71 73 73 72 71 69 65 64 62 56 52 48 42 37 32 30 27 25 22 19 17 15
70 76 87 94 85 89 79 77 73 74 74 72 67 64 63 63 61 59 54 50 44 40 36 32 29 25 20 16 14 13 13 14
80 85 94 93 84 69 67 71 66 62 59 59 58 58 59 57 54 49 46 43 41 37 33 27 20 17 15 17 17 15 14 13
93 87 71 62 62 60 58 59 60 62 59 56 56 56 54 52 48 46 44 40 33 26 22 21 20 18 17 21 21 20 21 17
67 60 55 56 60 65 68 70 67 64 62 61 61 56 53 50 46 40 32 25 22 21 21 22 22 21 21 26 30 29 32 30
58 55 60 68 74 76 73 70 68 68 69 63 60 55 51 47 38 31 26 25 24 26 26 26 26 30 28 31 34 39 43 40
67 74 73 75 76 76 69 67 68 66 62 58 55 51 46 39 32 29 28 28 30 32 32 34 36 37 40 40 39 47 49 50
74 74 74 69 71 72 72 71 67 62 58 54 48 41 37 35 35 34 33 35 37 37 37 44 48 41 41 45 47 51 50 52
64 65 69 73 74 75 72 66 63 59 53 46 44 43 41 40 39 39 41 41 42 42 38 53 55 46 47 55 53 57 57 56
62 65 70 74 75 71 65 64 60 55 50 50 48 46 44 41 40 41 41 40 37 46 44 49 51 53 51 55 59 68 59 57

GFSFLT2_prec_cthk_036.txt.gz
RH
59 37 27 24 17 10 12 17 23 27 29 30 30 29 30 32 34 38 40 39 36 36 34 33 33 32 33 34 34 34 38 39
39 33 30 19 11 11 17 24 30 32 34 34 35 37 38 40 40 42 42 43 42 39 38 36 36 36 36 37 38 39 40 40
33 31 26 19 16 17 24 30 36 36 37 42 47 49 47 47 44 42 42 43 42 45 43 42 39 38 38 39 39 42 43 43
24 19 14 13 22 24 29 37 42 45 49 51 55 49 52 53 46 45 45 43 42 42 42 41 43 43 42 41 42 41 41 41
24 15 15 19 27 33 39 44 45 52 54 54 56 56 52 54 49 51 49 47 49 50 50 47 47 45 45 44 44 43 40 39
20 19 23 27 35 42 43 50 58 65 62 66 66 64 61 59 57 56 56 58 57 56 55 51 50 49 47 46 46 44 42 40
28 30 34 38 42 48 54 60 66 67 72 78 84 79 75 70 67 62 64 62 62 62 59 56 53 51 51 49 47 44 40 37
41 48 50 48 51 55 63 66 76 77 80 88 88 87 75 73 70 68 68 67 64 62 59 58 55 52 48 44 39 36 33 30
66 56 60 66 69 70 77 84 84 81 85 87 84 84 81 76 71 69 68 65 62 60 57 54 50 45 39 34 31 29 26 25
68 83 83 85 88 91 89 86 80 83 84 83 83 78 74 72 69 65 65 61 59 56 51 48 41 38 34 30 29 22 20 19
70 85 85 89 94 94 93 84 81 80 76 78 77 73 67 63 63 62 60 56 52 48 45 41 36 33 26 22 22 20 18 22
71 78 86 90 89 89 83 80 75 72 67 66 64 60 58 57 58 56 52 50 46 41 35 30 26 28 21 22 22 23 25 25
72 80 84 94 80 72 69 65 65 65 60 61 61 59 59 58 55 52 49 48 40 33 28 28 27 29 24 23 23 30 32 31
81 83 76 70 61 59 65 66 65 64 64 67 67 67 66 63 60 58 51 43 37 33 30 27 28 30 32 26 27 26 30 43
70 68 64 58 63 70 70 70 70 69 74 73 72 68 65 60 54 47 39 36 34 32 33 32 31 30 36 35 34 32 35 36
66 67 67 66 66 70 71 75 72 70 74 75 69 65 60 52 43 37 36 35 34 37 36 33 37 38 42 43 46 46 46 46
69 64 65 65 66 68 69 71 72 74 72 69 68 63 51 44 43 41 39 40 42 41 39 41 45 43 48 54 52 49 54 59
64 64 65 64 64 66 70 71 72 70 69 69 63 59 54 53 51 44 42 43 45 48 48 46 53 57 58 56 55 55 55 62
61 60 62 65 66 67 68 67 64 68 70 62 56 57 57 55 50 46 45 44 41 40 55 55 56 58 59 65 66 59 57 62
59 61 62 63 64 65 66 62 68 67 58 56 56 56 53 47 42 37 39 39 40 42 53 57 61 50 62 61 62 58 64 66

GFSFLT2_prec_cthk_042.txt.gz
RH
90 90 72 52 40 25 14 12 15 21 25 28 28 28 29 32 34 38 40 40 40 38 39 40 39 40 37 37 35 33 35 39
92 74 56 44 31 21 13 15 22 26 29 31 31 32 34 39 41 41 41 42 44 44 46 45 45 45 43 41 40 36 37 36
76 63 42 28 19 14 12 19 26 30 34 37 41 45 47 46 43 43 44 45 46 48 50 50 50 51 47 45 43 39 40 40
62 46 47 32 16 13 15 27 32 35 39 46 52 56 57 55 52 49 52 53 55 59 61 59 56 55 51 47 44 41 41 41
46 38 35 30 20 17 25 35 43 48 49 53 67 57 65 66 72 66 68 66 65 65 65 59 57 52 51 48 45 41 40 39
31 29 28 26 21 30 35 45 46 54 54 58 67 74 77 76 77 81 73 70 70 68 65 60 54 51 49 46 43 40 37 36
31 23 26 23 32 43 49 58 64 66 71 78 82 82 83 81 82 81 75 73 71 65 60 56 50 47 44 40 38 35 31 32
25 22 23 32 40 43 53 62 62 71 83 86 83 81 79 81 77 73 72 69 63 59 54 48 45 42 38 35 33 30 25 25
33 36 44 44 44 49 55 60 67 70 77 81 81 80 77 79 81 74 65 57 52 51 47 45 40 36 33 30 29 27 24 25
49 53 54 56 63 66 71 72 74 78 74 78 80 82 81 75 68 59 53 50 48 45 42 39 35 32 29 29 31 28 27 28
55 56 60 71 76 79 81 85 78 74 72 76 78 73 66 56 51 53 53 50 48 44 42 37 33 32 32 32 31 29 28 28
61 65 66 68 72 78 80 76 72 67 65 61 60 55 50 51 53 54 54 52 49 46 44 45 43 40 38 36 35 36 32 32
62 63 64 65 73 75 66 62 63 60 60 55 51 50 53 55 56 56 55 56 52 47 45 45 42 40 40 38 36 35 36 33
61 62 67 74 75 68 61 60 58 53 49 52 55 56 57 59 60 62 60 56 47 45 44 41 43 44 41 39 39 37 38 36
60 65 71 66 64 62 58 53 51 52 55 58 60 62 62 62 62 60 57 49 47 44 43 45 46 44 40 46 45 43 38 35
64 70 63 64 59 56 56 55 56 57 60 62 62 65 63 65 61 56 53 50 45 41 43 45 45 46 42 45 46 49 48 44
65 64 62 61 55 57 56 60 61 64 69 69 73 75 70 62 58 57 55 50 47 44 48 49 46 47 47 44 51 58 56 59
60 60 65 61 58 58 59 60 63 66 68 70 74 72 69 64 61 57 51 47 40 43 42 40 37 40 44 48 57 63 66 65
62 62 61 59 58 58 58 61 66 66 67 66 72 66 64 58 54 48 43 40 43 43 40 39 40 44 50 57 67 68 67 66
57 59 59 57 56 57 57 62 64 65 69 69 73 62 51 50 46 43 42 44 42 39 37 38 40 47 54 56 65 67 67 71